STARLINK-35213 (65638 NORAD) Tracking and Keplerian Element Data

This shows tracking and keplerian element data for the satellite.

Feedback or suggestion? Click here.




ElementValue
Catalog65638
NameSTARLINK-35213
Epoch Orbit1555
Epoch Day354.14747541
Epoch Year2025
RAAN316.4884
Inclination53.1609
Eccentricity0.0001237
Argument of Perigee91.1742
Mean Anonmoly268.9401
Mean Motion15.30234555
Decay Rate0.00020677
L11 65638U 25210S 25354.14747541 .00020677 00000+0 70756-3 0 9999
L22 65638 53.1609 316.4884 0001237 91.1742 268.9401 15.30234555 15554



Live tracking and technical data element details for STARLINK-35213 (NORAD 65638). STARLINK-35213 can be tracked NOW for your location showing map with azimuth and elevation plus other details from your city location.







IsCatalogInMostPopularTable: catalog: 65638, numindb: 3
Update: records affected: 1



GetName: 65638 STARLINK-35213

Hit Count: updated at: Sat, 07 Feb 2026 09:10:39 GMT